Time,TemperatureF,DewpointF,PressureIn,WindDirection,WindDirectionDegrees,WindSpeedMPH,WindSpeedGustMPH,Humidity,HourlyPrecipIn,Conditions,Clouds,dailyrainin,SoftwareType,DateUTC
2013-03-30 00:29:00,40.0,24.7,30.25,WNW,294,2.0,3.0,54,0.00,,,0.00,VWS V14.01,2013-03-30 04:29:00,
2013-03-30 00:59:00,39.0,24.6,30.24,WNW,295,2.0,3.0,56,0.00,,,0.00,VWS V14.01,2013-03-30 04:59:00,
2013-03-30 01:29:00,38.6,24.3,30.24,WNW,294,2.0,2.0,56,0.00,,,0.00,VWS V14.01,2013-03-30 05:29:00,
2013-03-30 01:59:00,37.4,24.4,30.25,WNW,294,0.0,2.0,59,0.00,,,0.00,VWS V14.01,2013-03-30 05:59:00,
2013-03-30 02:29:00,36.1,24.0,30.24,WNW,294,0.0,1.0,61,0.00,,,0.00,VWS V14.01,2013-03-30 06:29:00,
2013-03-30 02:59:00,34.7,25.2,30.24,WNW,294,0.0,0.0,68,0.00,,,0.00,VWS V14.01,2013-03-30 06:59:00,
2013-03-30 03:29:00,33.3,24.2,30.24,WNW,294,0.0,2.0,69,0.00,,,0.00,VWS V14.01,2013-03-30 07:29:00,
2013-03-30 03:59:00,31.5,24.5,30.24,WNW,294,0.0,3.0,75,0.00,,,0.00,VWS V14.01,2013-03-30 07:59:00,
2013-03-30 04:29:00,30.5,24.5,30.24,WNW,294,0.0,2.0,78,0.00,,,0.00,VWS V14.01,2013-03-30 08:29:00,
2013-03-30 04:59:00,29.5,24.4,30.23,WNW,294,0.0,2.0,81,0.00,,,0.00,VWS V14.01,2013-03-30 08:59:00,
2013-03-30 05:29:00,29.1,24.6,30.24,WNW,294,0.0,2.0,83,0.00,,,0.00,VWS V14.01,2013-03-30 09:29:00,
2013-03-30 06:00:00,29.1,24.6,30.25,WNW,294,1.0,2.0,83,0.00,,,0.00,VWS V14.01,2013-03-30 10:00:00,
2013-03-30 06:29:00,27.7,23.5,30.25,WNW,294,0.0,2.0,84,0.00,,,0.00,VWS V14.01,2013-03-30 10:29:00,
2013-03-30 07:00:00,27.1,23.8,30.25,WNW,294,1.0,2.0,87,0.00,,,0.00,VWS V14.01,2013-03-30 11:00:00,
2013-03-30 07:29:00,26.9,23.3,30.27,North,360,0.0,2.0,86,0.00,,,0.00,VWS V14.01,2013-03-30 11:29:00,
2013-03-30 07:59:00,27.0,23.6,30.27,North,360,0.0,0.0,87,0.00,,,0.00,VWS V14.01,2013-03-30 11:59:00,
2013-03-30 08:29:00,28.5,24.9,30.29,North,360,0.0,0.0,86,0.00,,,0.00,VWS V14.01,2013-03-30 12:29:00,
2013-03-30 08:59:00,31.0,26.7,30.29,North,360,0.0,0.0,84,0.00,,,0.00,VWS V14.01,2013-03-30 12:59:00,
2013-03-30 09:29:00,35.0,27.9,30.30,West,278,0.0,1.0,75,0.00,,,0.00,VWS V14.01,2013-03-30 13:29:00,
2013-03-30 09:59:00,39.3,30.0,30.30,West,278,0.0,1.0,69,0.00,,,0.00,VWS V14.01,2013-03-30 13:59:00,
2013-03-30 10:29:00,43.6,29.0,30.29,NNE,25,0.0,4.0,56,0.00,,,0.00,VWS V14.01,2013-03-30 14:29:00,
2013-03-30 10:59:00,45.1,27.1,30.28,South,176,0.0,4.0,49,0.00,,,0.00,VWS V14.01,2013-03-30 14:59:00,
2013-03-30 11:29:00,47.0,25.7,30.26,NE,55,4.0,5.0,43,0.00,,,0.00,VWS V14.01,2013-03-30 15:29:00,
2013-03-30 11:59:00,48.2,23.8,30.26,NE,54,3.0,7.0,38,0.00,,,0.00,VWS V14.01,2013-03-30 15:59:00,
2013-03-30 12:29:00,49.7,25.8,30.24,ENE,61,8.0,8.0,39,0.00,,,0.00,VWS V14.01,2013-03-30 16:29:00,
2013-03-30 12:59:00,49.8,21.1,30.22,SSW,196,0.0,8.0,32,0.00,,,0.00,VWS V14.01,2013-03-30 16:59:00,
2013-03-30 13:29:00,50.3,24.4,30.21,South,175,0.0,6.0,36,0.00,,,0.00,VWS V14.01,2013-03-30 17:29:00,
2013-03-30 13:59:00,50.5,22.5,30.20,SE,142,0.0,8.0,33,0.00,,,0.00,VWS V14.01,2013-03-30 17:59:00,
2013-03-30 14:29:00,51.6,23.5,30.20,SSW,198,2.0,8.0,33,0.00,,,0.00,VWS V14.01,2013-03-30 18:29:00,
2013-03-30 14:59:00,53.0,24.0,30.18,East,79,3.0,10.0,32,0.00,,,0.00,VWS V14.01,2013-03-30 18:59:00,
2013-03-30 15:29:00,53.3,23.5,30.16,WNW,292,6.0,9.0,31,0.00,,,0.00,VWS V14.01,2013-03-30 19:29:00,
2013-03-30 15:59:00,53.9,23.2,30.15,SSW,205,3.0,7.0,30,0.00,,,0.00,VWS V14.01,2013-03-30 19:59:00,
2013-03-30 16:29:00,55.2,23.5,30.15,SSW,209,1.0,7.0,29,0.00,,,0.00,VWS V14.01,2013-03-30 20:29:00,
2013-03-30 16:59:00,55.5,24.6,30.13,ESE,123,0.0,7.0,30,0.00,,,0.00,VWS V14.01,2013-03-30 20:59:00,
2013-03-30 17:29:00,55.8,22.3,30.12,South,178,0.0,4.0,27,0.00,,,0.00,VWS V14.01,2013-03-30 21:29:00,
2013-03-30 17:59:00,55.8,22.3,30.12,NW,308,0.0,4.0,27,0.00,,,0.00,VWS V14.01,2013-03-30 21:59:00,
2013-03-30 18:29:00,55.1,23.4,30.11,East,79,2.0,3.0,29,0.00,,,0.00,VWS V14.01,2013-03-30 22:29:00,
2013-03-30 18:59:00,53.9,24.7,30.11,East,88,0.0,3.0,32,0.00,,,0.00,VWS V14.01,2013-03-30 22:59:00,
2013-03-30 19:29:00,52.0,20.8,30.12,East,88,0.0,0.0,29,0.00,,,0.00,VWS V14.01,2013-03-30 23:29:00,
2013-03-30 19:59:00,50.1,20.7,30.11,East,88,0.0,1.0,31,0.00,,,0.00,VWS V14.01,2013-03-30 23:59:00,
2013-03-30 20:29:00,49.1,20.5,30.10,East,88,0.0,0.0,32,0.00,,,0.00,VWS V14.01,2013-03-31 00:29:00,
2013-03-30 20:59:00,48.5,20.7,30.10,East,88,0.0,0.0,33,0.00,,,0.00,VWS V14.01,2013-03-31 00:59:00,
2013-03-30 21:29:00,48.2,21.2,30.10,East,88,0.0,0.0,34,0.00,,,0.00,VWS V14.01,2013-03-31 01:29:00,
2013-03-30 21:59:00,47.7,20.7,30.09,East,88,0.0,1.0,34,0.00,,,0.00,VWS V14.01,2013-03-31 01:59:00,
2013-03-30 22:29:00,46.8,20.6,30.09,East,88,0.0,0.0,35,0.00,,,0.00,VWS V14.01,2013-03-31 02:29:00,
2013-03-30 22:59:00,45.5,20.1,30.08,East,88,0.0,0.0,36,0.00,,,0.00,VWS V14.01,2013-03-31 02:59:00,
2013-03-30 23:29:00,43.9,21.7,30.06,East,88,0.0,0.0,41,0.00,,,0.00,VWS V14.01,2013-03-31 03:29:00,
2013-03-30 23:59:00,44.2,21.4,30.05,East,88,0.0,0.0,40,0.00,,,0.00,VWS V14.01,2013-03-31 03:59:00,